EW6960 Weather Reports


time (UTC)temp
F
wind
direction
speed
knots
gust
knots
rain 1hr
in
rain 24hr
in
rain mn
in
humidity
%
barometer
mb
20260507152003 60 125 0.0 1.7 0.00 0.00 0.00 57 1014.6
20260507151002 60 121 0.0 1.7 0.00 0.00 0.00 59 1014.4
20260507150024 61 139 0.0 1.7 0.00 0.00 0.00 57 1014.7
20260507145003 60 133 0.0 2.6 0.00 0.00 0.00 59 1014.7
20260507144003 59 117 0.0 2.6 0.00 0.00 0.00 62 1014.9
20260507143003 58 95 0.9 2.6 0.00 0.00 0.00 65 1015.0
20260507142003 58 110 0.9 2.6 0.00 0.00 0.00 64 1015.0
20260507141024 59 104 0.9 3.5 0.00 0.00 0.00 63 1015.1
20260507140024 59 111 0.9 3.5 0.00 0.00 0.00 63 1015.1
20260507135024 59 136 0.9 2.6 0.00 0.00 0.00 62 1015.0
20260507134003 59 237 0.0 2.6 0.00 0.00 0.00 61 1015.0
20260507133003 56 295 0.0 0.9 0.00 0.00 0.00 71 1015.0
20260507132003 58 0 0.0 0.0 0.00 0.00 0.00 72 1014.9
20260507131003 57 0 0.0 0.0 0.00 0.00 0.00 75 1015.1
20260507130003 57 60 0.0 0.9 0.00 0.00 0.00 77 1015.2
20260507125003 56 0 0.0 0.9 0.00 0.00 0.00 79 1015.4
20260507124003 56 105 0.0 1.7 0.00 0.00 0.00 80 1015.5
20260507123003 57 117 0.0 2.6 0.00 0.00 0.00 77 1015.2
20260507122003 58 124 0.0 3.5 0.00 0.00 0.00 70 1015.5
20260507121024 58 114 0.0 0.9 0.00 0.00 0.00 66 1015.2
20260507120024 58 125 0.0 1.7 0.00 0.00 0.00 64 1015.3
20260507115003 58 110 0.0 1.7 0.00 0.00 0.00 66 1015.3
20260507114003 58 134 0.0 3.5 0.00 0.00 0.00 66 1015.2
20260507113003 58 113 0.9 3.5 0.00 0.00 0.00 65 1015.4
20260507112003 58 129 0.9 5.2 0.00 0.00 0.00 65 1015.4
20260507111003 58 75 0.0 2.6 0.00 0.00 0.00 65 1015.3
20260507110024 58 127 0.9 2.6 0.00 0.00 0.00 64 1015.3
20260507105003 58 123 0.9 2.6 0.00 0.00 0.00 67 1015.5
20260507104003 58 105 0.0 1.7 0.00 0.00 0.00 65 1015.5
20260507103003 58 191 0.0 1.7 0.00 0.00 0.00 67 1015.3
20260507102003 59 161 0.0 2.6 0.00 0.00 0.00 66 1015.7
20260507101024 58 177 0.9 2.6 0.00 0.00 0.00 67 1015.6
20260507100003 58 153 0.0 1.7 0.00 0.00 0.00 68 1015.6
20260507095003 57 174 0.0 1.7 0.00 0.00 0.00 70 1015.6
20260507094003 57 244 0.9 1.7 0.00 0.00 0.00 73 1015.4
20260507093003 56 250 0.0 2.6 0.00 0.00 0.00 75 1015.5
20260507092024 56 131 0.0 2.6 0.00 0.00 0.00 76 1015.7
20260507091003 57 130 0.0 2.6 0.00 0.00 0.00 75 1015.6
20260507090003 56 212 0.0 1.7 0.00 0.00 0.00 74 1015.5
20260507085024 55 212 0.0 1.7 0.00 0.00 0.00 77 1015.9
20260507084003 54 212 0.0 2.6 0.00 0.00 0.00 78 1015.8
20260507083024 53 212 0.0 1.7 0.00 0.00 0.00 79 1016.0
20260507082003 52 212 0.0 1.7 0.00 0.00 0.00 79 1016.0
20260507081003 52 212 0.0 1.7 0.00 0.00 0.00 80 1015.9
20260507080003 51 215 0.0 2.6 0.00 0.00 0.00 81 1015.7
20260507075003 51 255 0.0 1.7 0.00 0.00 0.00 81 1016.0
20260507074003 51 241 0.0 0.9 0.00 0.00 0.00 81 1015.6
20260507073024 51 238 0.0 0.9 0.00 0.00 0.00 81 1015.7
20260507072003 50 226 0.0 1.7 0.00 0.00 0.00 82 1015.7
20260507071003 50 225 0.0 1.7 0.00 0.00 0.00 83 1015.6
20260507070005 50 244 0.0 2.6 0.00 0.00 0.00 83 1015.7
20260507065003 49 235 0.0 1.7 0.00 0.00 0.00 83 1015.7
20260507063003 49 232 0.0 1.7 0.00 0.00 0.00 84 1015.6
20260507062003 48 233 0.0 1.7 0.00 0.00 0.00 84 1015.6
20260507061003 48 215 0.0 0.9 0.00 0.00 0.00 85 1015.7
20260507060024 48 215 0.0 0.9 0.00 0.00 0.00 85 1015.7
20260507055024 48 215 0.0 0.9 0.00 0.00 0.00 85 1015.4
20260507054024 47 0 0.0 0.9 0.00 0.00 0.00 85 1015.2
20260507053003 47 215 0.0 0.9 0.00 0.00 0.00 85 1015.4
20260507052003 47 0 0.0 0.0 0.00 0.00 0.00 86 1015.3
20260507051003 47 0 0.0 0.0 0.00 0.00 0.00 86 1015.5
20260507050003 47 0 0.0 0.0 0.00 0.00 0.00 86 1015.2
20260507045003 47 216 0.0 0.9 0.00 0.00 0.00 85 1015.3
20260507044003 47 215 0.0 0.9 0.00 0.00 0.00 85 1015.2
20260507043003 47 0 0.0 0.0 0.00 0.00 0.00 84 1015.1
20260507042003 47 0 0.0 0.9 0.00 0.00 0.00 84 1015.1
20260507041003 47 0 0.0 0.0 0.00 0.00 0.00 85 1015.1
20260507040003 47 0 0.0 0.9 0.00 0.00 0.00 85 1015.2
20260507035003 47 0 0.0 0.0 0.00 0.00 0.00 84 1015.1
20260507034003 47 0 0.0 0.9 0.00 0.00 0.00 84 1015.1
20260507033003 47 214 0.0 0.9 0.00 0.00 0.00 83 1015.0
20260507032024 47 0 0.0 0.0 0.00 0.00 0.00 83 1014.9
20260507031024 48 0 0.0 0.0 0.00 0.00 0.00 81 1014.9
20260507030024 48 0 0.0 0.0 0.00 0.00 0.00 81 1015.1
20260507025003 48 0 0.0 0.9 0.00 0.00 0.00 80 1015.1
20260507024003 48 0 0.0 0.0 0.00 0.00 0.00 80 1015.0
20260507023003 48 0 0.0 0.9 0.00 0.00 0.00 80 1015.0
20260507022003 48 0 0.0 0.0 0.00 0.00 0.00 79 1015.0
20260507021003 48 0 0.0 0.0 0.00 0.00 0.00 79 1014.9
20260507020003 48 214 0.0 0.9 0.00 0.00 0.00 79 1015.0
20260507015004 48 0 0.0 0.9 0.00 0.00 0.00 79 1015.0
20260507014003 48 214 0.0 0.9 0.00 0.00 0.00 78 1015.1
20260507013003 48 214 0.0 0.9 0.00 0.00 0.00 78 1014.9
20260507012003 48 0 0.0 0.0 0.00 0.00 0.00 78 1014.9
20260507011003 48 214 0.0 0.9 0.00 0.00 0.00 77 1015.0
20260507010004 48 0 0.0 0.9 0.00 0.00 0.00 77 1014.9
20260507005003 49 289 0.0 0.9 0.00 0.00 0.00 77 1014.9
20260507004003 49 256 0.0 0.9 0.00 0.00 0.00 77 1014.9
20260507003004 49 258 0.0 1.7 0.00 0.00 0.00 77 1015.0
20260507002006 49 259 0.0 0.9 0.00 0.00 0.00 77 1015.0
20260506235003 49 0 0.0 0.0 0.00 0.00 0.00 75 1015.2
20260506234003 49 0 0.0 0.9 0.00 0.00 0.00 74 1014.8
20260506233003 49 0 0.0 0.0 0.00 0.00 0.00 74 1015.0
20260506232003 49 0 0.0 0.0 0.00 0.00 0.00 74 1015.1
20260506231005 49 0 0.0 0.0 0.00 0.00 0.00 73 1015.0
20260506230004 50 0 0.0 0.0 0.00 0.00 0.00 73 1014.8
20260506225003 50 0 0.0 0.9 0.00 0.00 0.00 74 1014.8
20260506224003 50 263 0.0 0.9 0.00 0.00 0.00 74 1015.0
20260506223004 50 263 0.0 0.9 0.00 0.00 0.00 74 1014.8
20260506222003 50 0 0.0 0.9 0.00 0.00 0.00 74 1014.8
20260506221024 50 270 0.0 0.9 0.00 0.00 0.00 74 1014.6
20260506220006 51 270 0.0 0.9 0.00 0.00 0.00 73 1014.6
20260506215004 51 270 0.0 0.9 0.00 0.00 0.00 72 1014.7
20260506214003 51 0 0.0 0.0 0.00 0.00 0.00 73 1014.6
20260506213024 51 0 0.0 0.0 0.00 0.00 0.00 73 1014.7
20260506212003 52 0 0.0 0.0 0.00 0.00 0.00 72 1014.6
20260506211003 52 0 0.0 0.0 0.00 0.00 0.00 71 1014.5
20260506210004 53 0 0.0 0.0 0.00 0.00 0.00 70 1014.5
20260506205025 53 0 0.0 0.0 0.00 0.00 0.00 68 1014.3
20260506204024 54 0 0.0 0.9 0.00 0.00 0.00 67 1014.3
20260506203003 54 270 0.0 0.9 0.00 0.00 0.00 65 1014.4
20260506202004 54 0 0.0 0.0 0.00 0.00 0.00 66 1014.3
20260506201003 54 0 0.0 0.9 0.00 0.00 0.00 66 1014.1
20260506200004 54 0 0.0 0.9 0.00 0.00 0.00 66 1014.3
20260506195003 55 0 0.0 0.0 0.00 0.00 0.00 64 1013.9
20260506194003 55 0 0.0 0.0 0.00 0.00 0.00 60 1013.8
20260506193004 56 0 0.0 0.0 0.00 0.00 0.00 59 1013.8
20260506192004 56 0 0.0 0.0 0.00 0.00 0.00 57 1013.9
20260506191003 57 0 0.0 0.0 0.00 0.00 0.00 57 1013.7
20260506190004 57 0 0.0 0.0 0.00 0.00 0.00 56 1013.8
20260506185004 57 0 0.0 0.0 0.00 0.00 0.00 56 1013.8
20260506184003 57 270 0.0 0.9 0.00 0.00 0.00 55 1013.7
20260506183004 58 270 0.0 0.9 0.00 0.00 0.00 54 1013.6
20260506182004 58 273 0.0 0.9 0.00 0.00 0.00 57 1013.7
20260506180003 58 259 0.0 0.9 0.00 0.00 0.00 56 1013.4
20260506175003 58 267 0.0 2.6 0.00 0.00 0.00 55 1013.4
20260506174003 58 260 0.0 1.7 0.00 0.00 0.00 52 1013.3
20260506173003 59 274 0.0 2.6 0.00 0.00 0.00 52 1013.4
20260506172003 59 283 0.0 1.7 0.00 0.00 0.00 50 1013.3
20260506171003 59 228 0.0 1.7 0.00 0.00 0.00 50 1013.3
20260506170003 58 222 0.0 1.7 0.00 0.00 0.00 50 1013.2
20260506165003 58 254 0.0 1.7 0.00 0.00 0.00 51 1013.1
20260506164003 59 258 0.0 2.6 0.00 0.00 0.00 50 1013.4
20260506163003 60 295 0.0 3.5 0.00 0.00 0.00 49 1013.4
20260506161003 59 298 0.0 1.7 0.00 0.00 0.00 51 1013.3
20260506160003 59 298 0.0 1.7 0.00 0.00 0.00 49 1013.4
20260506155010 59 298 0.0 1.7 0.00 0.00 0.00 49 1013.5
20260506154003 61 301 0.0 1.7 0.00 0.00 0.00 46 1013.5
20260506153003 59 301 0.0 2.6 0.00 0.00 0.00 49 1013.5